HST
1 20580U 90037B   24113.01568836  .00012949  00000-0  62988-3 0  9993
2 20580  28.4699   1.2484 0002471 133.6675 226.4122 15.16877151668752
ISS (ZARYA)
1 25544U 98067A   24113.34884220  .00032660  00000-0  56494-3 0  9990
2 25544  51.6393 232.2772 0004631  92.0510   3.0658 15.50634351449883
CXO
1 25867U 99040B   24114.98765664  .00000954  00000-0  00000-0 0  9991
2 25867  39.9917 159.0971 8937982 292.6126   1.5471  0.37815853 14355